ALK101 VCBI-VRMM

Flight info

Callsign ALK101
Flight time 1h 8m
Altitude 36000
Route LALU1D TELIG M512 HOKEY HOKE1A
Aircraft A333/H-SDE3GHIJ2J3J5M1RVWXY/LB2D1

Departure

Time 2026-04-29 10:20
Airport Bandaranaike International Colombo Airport (VCBI)

Arrival

Time 2026-04-29 11:29
Airport Velana International Airport (VRMM)
Time Latitude Longitude Altitude Speed Heading
2026-04-29 10:08 7.17610 79.88413 30 ft 0 kts 37°
2026-04-29 10:13 7.17609 79.88412 31 ft 2 kts 37°
2026-04-29 10:13 7.17597 79.88403 30 ft 4 kts 37°
2026-04-29 10:13 7.17569 79.88381 29 ft 2 kts 37°
2026-04-29 10:14 7.17550 79.88370 30 ft 4 kts 355°
2026-04-29 10:14 7.17536 79.88375 28 ft 4 kts 314°
2026-04-29 10:14 7.17520 79.88395 30 ft 2 kts 307°
2026-04-29 10:14 7.17519 79.88396 30 ft 0 kts 307°
2026-04-29 10:15 7.17528 79.88384 28 ft 6 kts 308°
2026-04-29 10:16 7.17568 79.88332 31 ft 14 kts 307°
2026-04-29 10:16 7.17640 79.88264 31 ft 9 kts 351°
2026-04-29 10:16 7.17696 79.88283 32 ft 11 kts 33°
2026-04-29 10:16 7.17779 79.88345 31 ft 19 kts 37°
2026-04-29 10:17 7.17906 79.88442 31 ft 25 kts 37°
2026-04-29 10:17 7.18049 79.88551 31 ft 27 kts 37°
2026-04-29 10:17 7.18200 79.88666 31 ft 28 kts 37°
2026-04-29 10:17 7.18355 79.88784 31 ft 29 kts 37°
2026-04-29 10:18 7.18517 79.88908 32 ft 30 kts 37°
2026-04-29 10:18 7.18687 79.89038 31 ft 31 kts 37°
2026-04-29 10:18 7.18857 79.89167 31 ft 31 kts 37°
2026-04-29 10:18 7.19032 79.89301 31 ft 32 kts 37°
2026-04-29 10:19 7.19180 79.89400 31 ft 20 kts
2026-04-29 10:19 7.19278 79.89312 30 ft 17 kts 295°
2026-04-29 10:19 7.19235 79.89230 31 ft 10 kts 217°
2026-04-29 10:19 7.19132 79.89153 32 ft 38 kts 217°
2026-04-29 10:20 7.18740 79.88853 33 ft 102 kts 217°
2026-04-29 10:20 7.18018 79.88302 41 ft 156 kts 218°
2026-04-29 10:20 7.17108 79.87602 619 ft 169 kts 220°
2026-04-29 10:20 7.16192 79.86890 1541 ft 165 kts 218°
2026-04-29 10:21 7.15219 79.86148 2067 ft 190 kts 217°
2026-04-29 10:21 7.14085 79.85279 2430 ft 220 kts 217°
2026-04-29 10:21 7.12794 79.84289 2834 ft 244 kts 216°
2026-04-29 10:21 7.11423 79.83237 3547 ft 250 kts 216°
2026-04-29 10:22 7.10020 79.82160 4244 ft 257 kts 216°
2026-04-29 10:22 7.08584 79.81057 5010 ft 261 kts 216°
2026-04-29 10:22 7.07117 79.79932 5714 ft 269 kts 216°
2026-04-29 10:22 7.05624 79.78785 6498 ft 271 kts 216°
2026-04-29 10:23 7.04124 79.77633 7180 ft 278 kts 216°
2026-04-29 10:23 7.02572 79.76440 7971 ft 281 kts 216°
2026-04-29 10:23 7.01002 79.75234 8773 ft 286 kts 215°
2026-04-29 10:23 6.99408 79.74011 9586 ft 290 kts 216°
2026-04-29 10:24 6.97790 79.72746 10161 ft 302 kts 220°
2026-04-29 10:24 6.96289 79.71156 10469 ft 325 kts 230°
2026-04-29 10:24 6.94858 79.69317 10838 ft 342 kts 231°
2026-04-29 10:24 6.93415 79.67363 11376 ft 352 kts 232°
2026-04-29 10:25 6.91954 79.65353 11987 ft 359 kts 232°
2026-04-29 10:25 6.90473 79.63309 12688 ft 363 kts 233°
2026-04-29 10:25 6.88979 79.61241 13385 ft 367 kts 232°
2026-04-29 10:25 6.87464 79.59145 14012 ft 372 kts 232°
2026-04-29 10:26 6.85952 79.57052 14640 ft 376 kts 232°
2026-04-29 10:26 6.84412 79.54920 15286 ft 378 kts 232°
2026-04-29 10:26 6.82861 79.52773 15961 ft 380 kts 232°
2026-04-29 10:26 6.81299 79.50611 16576 ft 384 kts 232°
2026-04-29 10:27 6.78133 79.46230 17832 ft 390 kts 232°
2026-04-29 10:27 6.76530 79.44012 18400 ft 393 kts 232°
2026-04-29 10:27 6.74909 79.41770 18906 ft 397 kts 232°
2026-04-29 10:28 6.73280 79.39517 19411 ft 400 kts 232°
2026-04-29 10:28 6.71634 79.37240 19912 ft 403 kts 232°
2026-04-29 10:28 6.69976 79.34948 20402 ft 406 kts 232°
2026-04-29 10:28 6.68327 79.32667 20898 ft 410 kts 232°
2026-04-29 10:29 6.66644 79.30341 21380 ft 413 kts 232°
2026-04-29 10:29 6.64945 79.27994 21866 ft 416 kts 232°
2026-04-29 10:29 6.63234 79.25629 22351 ft 419 kts 232°
2026-04-29 10:29 6.61512 79.23249 22824 ft 423 kts 232°
2026-04-29 10:30 6.59776 79.20851 23286 ft 426 kts 232°
2026-04-29 10:30 6.58027 79.18435 23703 ft 429 kts 232°
2026-04-29 10:30 6.56266 79.16002 24090 ft 431 kts 232°
2026-04-29 10:30 6.54493 79.13554 24496 ft 434 kts 232°
2026-04-29 10:31 6.52753 79.11066 24907 ft 437 kts 236°
2026-04-29 10:31 6.51285 79.08377 25297 ft 440 kts 241°
2026-04-29 10:31 6.49920 79.05614 25678 ft 443 kts 243°
2026-04-29 10:31 6.48575 79.02815 26080 ft 444 kts 243°
2026-04-29 10:32 6.47239 79.00003 26474 ft 447 kts 243°
2026-04-29 10:32 6.45901 78.97174 26844 ft 449 kts 243°
2026-04-29 10:32 6.44559 78.94330 27212 ft 452 kts 243°
2026-04-29 10:32 6.43226 78.91502 27575 ft 454 kts 243°
2026-04-29 10:33 6.41872 78.88627 27950 ft 456 kts 243°
2026-04-29 10:33 6.40507 78.85729 28335 ft 459 kts 243°
2026-04-29 10:33 6.39136 78.82819 28673 ft 461 kts 243°
2026-04-29 10:33 6.37760 78.79899 29033 ft 464 kts 243°
2026-04-29 10:34 6.36375 78.76960 29384 ft 466 kts 243°
2026-04-29 10:34 6.34984 78.74008 29733 ft 468 kts 243°
2026-04-29 10:34 6.33583 78.71037 30042 ft 471 kts 243°
2026-04-29 10:34 6.32179 78.68059 30339 ft 472 kts 243°
2026-04-29 10:35 6.30769 78.65069 30627 ft 474 kts 243°
2026-04-29 10:35 6.29354 78.62067 30911 ft 476 kts 243°
2026-04-29 10:35 6.27950 78.59091 31188 ft 478 kts 243°
2026-04-29 10:35 6.26504 78.56026 31469 ft 480 kts 243°
2026-04-29 10:36 6.25072 78.52991 31762 ft 482 kts 243°
2026-04-29 10:36 6.23654 78.49985 32038 ft 483 kts 243°
2026-04-29 10:36 6.22214 78.46933 32416 ft 483 kts 243°
2026-04-29 10:36 6.20777 78.43890 32827 ft 481 kts 243°
2026-04-29 10:37 6.19345 78.40856 33240 ft 479 kts 243°
2026-04-29 10:37 6.17919 78.37836 33643 ft 478 kts 243°
2026-04-29 10:37 6.16495 78.34822 34014 ft 477 kts 243°
2026-04-29 10:37 6.15075 78.31814 34353 ft 476 kts 243°
2026-04-29 10:38 6.13652 78.28803 34707 ft 475 kts 243°
2026-04-29 10:38 6.12237 78.25808 35047 ft 473 kts 243°
2026-04-29 10:38 6.10829 78.22828 35383 ft 472 kts 243°
2026-04-29 10:38 6.09421 78.19851 35707 ft 471 kts 243°
2026-04-29 10:39 6.08017 78.16879 35823 ft 467 kts 243°
2026-04-29 10:39 6.05273 78.11076 35839 ft 455 kts 243°
2026-04-29 10:40 6.02561 78.05344 35840 ft 454 kts 243°
2026-04-29 10:40 5.99867 77.99650 35839 ft 454 kts 243°
2026-04-29 10:41 5.97155 77.93921 35838 ft 454 kts 243°
2026-04-29 10:41 5.94441 77.88191 35837 ft 454 kts 243°
2026-04-29 10:42 5.91720 77.82446 35838 ft 455 kts 243°
2026-04-29 10:42 5.88999 77.76704 35837 ft 455 kts 243°
2026-04-29 10:43 5.86278 77.70962 35837 ft 455 kts 243°
2026-04-29 10:43 5.83571 77.65251 35837 ft 455 kts 243°
2026-04-29 10:44 5.80844 77.59502 35837 ft 455 kts 243°
2026-04-29 10:44 5.78118 77.53753 35838 ft 455 kts 243°
2026-04-29 10:45 5.75389 77.48004 35838 ft 456 kts 243°
2026-04-29 10:45 5.72679 77.42294 35838 ft 456 kts 243°
2026-04-29 10:46 5.69951 77.36550 35836 ft 456 kts 243°
2026-04-29 10:46 5.67221 77.30802 35837 ft 456 kts 243°
2026-04-29 10:47 5.64494 77.25062 35837 ft 456 kts 243°
2026-04-29 10:47 5.61767 77.19323 35836 ft 454 kts 243°
2026-04-29 10:48 5.59048 77.13603 35838 ft 453 kts 243°
2026-04-29 10:48 5.56334 77.07896 35837 ft 453 kts 243°
2026-04-29 10:49 5.53611 77.02172 35841 ft 454 kts 243°
2026-04-29 10:49 5.50892 76.96457 35840 ft 454 kts 243°
2026-04-29 10:50 5.48188 76.90777 35840 ft 454 kts 243°
2026-04-29 10:50 5.45470 76.85067 35838 ft 454 kts 243°
2026-04-29 10:51 5.42735 76.79325 35838 ft 457 kts 243°
2026-04-29 10:51 5.39990 76.73563 35838 ft 458 kts 243°
2026-04-29 10:52 5.37245 76.67802 35837 ft 458 kts 243°
2026-04-29 10:52 5.34497 76.62035 35837 ft 458 kts 243°
2026-04-29 10:53 5.31745 76.56265 35840 ft 458 kts 243°
2026-04-29 10:53 5.28998 76.50504 35839 ft 458 kts 243°
2026-04-29 10:54 5.26251 76.44746 35839 ft 456 kts 243°
2026-04-29 10:54 5.23511 76.39003 35840 ft 456 kts 243°
2026-04-29 10:55 5.20770 76.33261 35841 ft 456 kts 243°
2026-04-29 10:55 5.18048 76.27560 35838 ft 456 kts 243°
2026-04-29 10:56 5.15304 76.21814 35841 ft 456 kts 243°
2026-04-29 10:56 5.12558 76.16066 35839 ft 456 kts 243°
2026-04-29 10:57 5.10132 76.10173 35840 ft 456 kts 251°
2026-04-29 10:57 5.08256 76.04109 35840 ft 455 kts 252°
2026-04-29 10:58 5.06403 75.98037 35840 ft 455 kts 252°
2026-04-29 10:58 5.04544 75.91973 35839 ft 455 kts 252°
2026-04-29 10:59 5.02694 75.85949 35839 ft 455 kts 252°
2026-04-29 10:59 5.00830 75.79885 35842 ft 455 kts 252°
2026-04-29 11:00 4.98962 75.73808 35845 ft 455 kts 252°
2026-04-29 11:00 4.97412 75.68767 35845 ft 455 kts 252°
2026-04-29 11:01 4.95134 75.62866 35849 ft 453 kts 241°
2026-04-29 11:01 4.92031 75.57357 35846 ft 453 kts 239°
2026-04-29 11:02 4.88877 75.51871 35845 ft 454 kts 239°
2026-04-29 11:02 4.85731 75.46383 35842 ft 454 kts 239°
2026-04-29 11:03 4.82589 75.40896 35849 ft 453 kts 239°
2026-04-29 11:03 4.79468 75.35445 35842 ft 452 kts 239°
2026-04-29 11:04 4.76295 75.29905 35550 ft 469 kts 239°
2026-04-29 11:04 4.74663 75.27055 35316 ft 472 kts 239°
2026-04-29 11:04 4.73034 75.24210 35083 ft 470 kts 239°
2026-04-29 11:04 4.71410 75.21374 34852 ft 467 kts 239°
2026-04-29 11:05 4.69798 75.18558 34628 ft 465 kts 239°
2026-04-29 11:05 4.68192 75.15754 34389 ft 463 kts 239°
2026-04-29 11:05 4.66589 75.12955 33862 ft 463 kts 238°
2026-04-29 11:05 4.64977 75.10143 33096 ft 467 kts 238°
2026-04-29 11:06 4.63355 75.07312 32373 ft 469 kts 238°
2026-04-29 11:06 4.61740 75.04494 31657 ft 463 kts 239°
2026-04-29 11:06 4.60157 75.01730 31089 ft 452 kts 239°
2026-04-29 11:06 4.58608 74.99025 30612 ft 442 kts 239°
2026-04-29 11:07 4.57102 74.96399 30226 ft 440 kts 239°
2026-04-29 11:07 4.55576 74.93738 29710 ft 439 kts 239°
2026-04-29 11:07 4.54057 74.91089 29169 ft 437 kts 239°
2026-04-29 11:07 4.52543 74.88448 28665 ft 434 kts 239°
2026-04-29 11:08 4.51043 74.85832 28141 ft 431 kts 239°
2026-04-29 11:08 4.49554 74.83236 27645 ft 428 kts 239°
2026-04-29 11:08 4.48074 74.80655 27165 ft 425 kts 239°
2026-04-29 11:08 4.46606 74.78097 26677 ft 422 kts 239°
2026-04-29 11:09 4.45145 74.75550 26166 ft 419 kts 239°
2026-04-29 11:09 4.43697 74.73026 25671 ft 416 kts 239°
2026-04-29 11:09 4.42287 74.70504 25165 ft 413 kts 241°
2026-04-29 11:09 4.40974 74.67950 24727 ft 411 kts 241°
2026-04-29 11:10 4.39678 74.65409 24230 ft 409 kts 242°
2026-04-29 11:10 4.38393 74.62873 23760 ft 407 kts 242°
2026-04-29 11:10 4.37116 74.60344 23253 ft 405 kts 242°
2026-04-29 11:10 4.35866 74.57861 22734 ft 402 kts 242°
2026-04-29 11:11 4.34612 74.55369 22232 ft 398 kts 242°
2026-04-29 11:11 4.33372 74.52902 21771 ft 395 kts 242°
2026-04-29 11:11 4.32143 74.50459 21299 ft 391 kts 242°
2026-04-29 11:11 4.30921 74.48027 20832 ft 391 kts 242°
2026-04-29 11:12 4.29704 74.45606 20398 ft 388 kts 242°
2026-04-29 11:12 4.28491 74.43194 19974 ft 385 kts 242°
2026-04-29 11:12 4.27288 74.40799 19557 ft 382 kts 242°
2026-04-29 11:12 4.26094 74.38425 19141 ft 380 kts 242°
2026-04-29 11:13 4.24912 74.36072 18818 ft 375 kts 242°
2026-04-29 11:13 4.23746 74.33752 18457 ft 371 kts 242°
2026-04-29 11:13 4.22589 74.31452 18073 ft 368 kts 242°
2026-04-29 11:13 4.21456 74.29199 17647 ft 365 kts 242°
2026-04-29 11:14 4.20313 74.26927 17223 ft 362 kts 241°
2026-04-29 11:14 4.19185 74.24684 16809 ft 359 kts 241°
2026-04-29 11:14 4.18063 74.22453 16393 ft 356 kts 241°
2026-04-29 11:14 4.16951 74.20243 15985 ft 353 kts 241°
2026-04-29 11:15 4.15849 74.18052 15575 ft 351 kts 241°
2026-04-29 11:15 4.14755 74.15877 15176 ft 348 kts 241°
2026-04-29 11:15 4.13672 74.13725 14779 ft 345 kts 241°
2026-04-29 11:15 4.12596 74.11586 14376 ft 342 kts 241°
2026-04-29 11:16 4.11526 74.09461 13985 ft 340 kts 241°
2026-04-29 11:16 4.10467 74.07356 13587 ft 337 kts 241°
2026-04-29 11:16 4.09414 74.05265 13137 ft 335 kts 242°
2026-04-29 11:16 4.08381 74.03213 12708 ft 333 kts 242°
2026-04-29 11:17 4.07341 74.01147 12238 ft 331 kts 242°
2026-04-29 11:17 4.06308 73.99095 11768 ft 330 kts 242°
2026-04-29 11:17 4.05269 73.97034 11184 ft 331 kts 242°
2026-04-29 11:17 4.04255 73.95017 10777 ft 315 kts 242°
2026-04-29 11:18 4.03298 73.93114 10529 ft 296 kts 241°
2026-04-29 11:18 4.02398 73.91325 10297 ft 280 kts 242°
2026-04-29 11:18 4.01533 73.89606 10004 ft 275 kts 241°
2026-04-29 11:18 4.00673 73.87901 9725 ft 273 kts 242°
2026-04-29 11:19 3.99820 73.86210 9352 ft 271 kts 242°
2026-04-29 11:19 3.98975 73.84534 9028 ft 268 kts 242°
2026-04-29 11:19 3.98138 73.82871 8709 ft 266 kts 242°
2026-04-29 11:19 3.97317 73.81242 8407 ft 264 kts 242°
2026-04-29 11:20 3.96490 73.79602 8096 ft 262 kts 243°
2026-04-29 11:20 3.95672 73.77976 7791 ft 260 kts 243°
2026-04-29 11:20 3.95049 73.76287 7484 ft 258 kts 258°
2026-04-29 11:20 3.94887 73.74506 7177 ft 256 kts 268°
2026-04-29 11:21 3.94878 73.72728 6868 ft 254 kts 270°
2026-04-29 11:21 3.94891 73.70966 6579 ft 252 kts 270°
2026-04-29 11:21 3.94902 73.69223 6277 ft 248 kts 270°
2026-04-29 11:21 3.94909 73.67500 5965 ft 247 kts 270°
2026-04-29 11:22 3.94913 73.65813 5700 ft 242 kts 269°
2026-04-29 11:22 3.94914 73.64164 5552 ft 230 kts 269°
2026-04-29 11:22 3.94913 73.62575 5198 ft 229 kts 269°
2026-04-29 11:22 3.94911 73.60986 4912 ft 225 kts 269°
2026-04-29 11:23 3.94908 73.59425 4664 ft 223 kts 269°
2026-04-29 11:23 3.94906 73.57881 4436 ft 220 kts 269°
2026-04-29 11:23 3.94905 73.56354 4186 ft 219 kts 270°
2026-04-29 11:23 3.95121 73.54888 4020 ft 204 kts 289°
2026-04-29 11:24 3.95937 73.53804 4002 ft 196 kts 321°
2026-04-29 11:24 3.97140 73.53168 3939 ft 198 kts 339°
2026-04-29 11:24 3.98501 73.52973 3771 ft 199 kts 355°
2026-04-29 11:24 3.99892 73.52985 3538 ft 200 kts 360°
2026-04-29 11:25 4.01280 73.53050 3271 ft 199 kts
2026-04-29 11:25 4.02663 73.53107 2988 ft 197 kts 358°
2026-04-29 11:25 4.04035 73.53104 2728 ft 198 kts 357°
2026-04-29 11:25 4.05416 73.53098 2475 ft 198 kts 357°
2026-04-29 11:26 4.07945 73.53107 1997 ft 168 kts 356°
2026-04-29 11:26 4.09071 73.53108 1784 ft 155 kts 357°
2026-04-29 11:26 4.10104 73.53108 1606 ft 144 kts 356°
2026-04-29 11:27 4.11100 73.53106 1407 ft 143 kts 354°
2026-04-29 11:27 4.12099 73.53101 1238 ft 144 kts 355°
2026-04-29 11:27 4.13101 73.53100 1048 ft 143 kts 355°
2026-04-29 11:27 4.14097 73.53101 871 ft 142 kts 354°
2026-04-29 11:28 4.15090 73.53100 705 ft 143 kts 355°
2026-04-29 11:28 4.16097 73.53099 524 ft 145 kts 355°
2026-04-29 11:28 4.17100 73.53101 329 ft 143 kts 357°
2026-04-29 11:28 4.18105 73.53112 134 ft 146 kts 358°
2026-04-29 11:29 4.19112 73.53110 20 ft 138 kts 356°
2026-04-29 11:29 4.19919 73.53099 16 ft 89 kts 360°
2026-04-29 11:29 4.20302 73.53099 16 ft 21 kts 359°
2026-04-29 11:29 4.20368 73.53041 16 ft 13 kts 281°
2026-04-29 11:30 4.20368 73.52948 16 ft 14 kts 266°
2026-04-29 11:30 4.20301 73.52897 16 ft 16 kts 181°
2026-04-29 11:30 4.20170 73.52898 16 ft 20 kts 179°
2026-04-29 11:30 4.20009 73.52901 16 ft 25 kts 179°
2026-04-29 11:31 4.19836 73.52904 16 ft 25 kts 179°
2026-04-29 11:31 4.19660 73.52907 16 ft 26 kts 178°
2026-04-29 11:31 4.19481 73.52909 16 ft 26 kts 179°
2026-04-29 11:31 4.19299 73.52913 16 ft 26 kts 179°
2026-04-29 11:32 4.19116 73.52916 16 ft 25 kts 179°
2026-04-29 11:32 4.18955 73.52918 16 ft 22 kts 179°
2026-04-29 11:32 4.18807 73.52921 16 ft 21 kts 179°
2026-04-29 11:32 4.18692 73.52906 16 ft 10 kts 228°
2026-04-29 11:33 4.18674 73.52839 16 ft 10 kts 270°
2026-04-29 11:33 4.18673 73.52803 16 ft 0 kts 269°